Location: Cahas Mountain Overlook
(37.0833°N, 80.1000°W)
Time: 18:41:45
(UTC-04:00)

Explorer 7 - Pass Details

Date: 12 February 2026
Orbit: 430 x 541 km, 50.2° (Epoch: 13 March)

Event Time Altitude Azimuth Distance (km) Brightness Sun altitude
Rises 21:59:36 0° 315° (NW) 2,596 - -48.1°
Reaches altitude 10° 22:02:10 10° 332° (NNW) 1,733 - -48.6°
Maximum altitude 22:05:13 21° 22° (NNE) 1,208 - -49.2°
Drops below altitude 10° 22:08:21 10° 73° (ENE) 1,776 - -49.7°
Sets 22:11:01 0° 90° (E) 2,680 - -50.2°
